Hourly Data Report for January 28, 2013

BAGOTVILLE A
QUEBEC

48°20'00.000" N
71°00'00.000" W
159.10 m
7060400
71727
YBG

Download Data

Hourly Data (January 2013)
Hourly Data Report for January 28, 2013
TIME
LST
Temp Definition
°C
Dew Point Definition
°C
Rel Hum Definition
%
Precip. Amount Definition
mm

Wind Dir Definition
10's deg

Wind Spd Definition
km/h
Visibility Definition
km
Stn Press Definition
kPa
Hmdx Definition


Wind Chill Definition


Weather Definition


00:00 -22.0 -25.3 75   24 4 24.1 100.93   -26 Mainly Clear
01:00 -19.9 -22.9 77     0 24.1 100.93     Mainly Clear
02:00 -23.7 -27.3 72   5 4 24.1 100.90   -28 Mainly Clear
03:00 -25.1 -28.9 71   19 6 24.1 100.89   -31 Mainly Clear
04:00 -24.9 -28.7 71   18 6 24.1 100.84   -31 Mainly Clear
05:00 -25.5 -29.4 70   20 4 24.1 100.77   -30 Mainly Clear
06:00 -25.2 -29.1 70   19 7 24.1 100.72   -32 Mainly Clear
07:00 -24.8 -28.6 71   10 4 40.2 100.67   -29 Mainly Clear
08:00 -23.7 -26.3 79     0 40.2 100.64     Mostly Cloudy
09:00 -20.3 -24.2 71     0 40.2 100.56     Snow Showers
10:00 -18.6 -23.7 64     0 32.2 100.56     Snow Showers
11:00 -15.9 -23.2 53   7 6 32.2 100.46   -20 Snow Showers
12:00 -13.6 -19.1 63     0 8.0 100.35     Snow Showers
13:00 -12.4 -16.8 70   9 6 9.7 100.24   -16 Snow Showers
14:00 -11.0 -17.2 60   9 6 40.2 100.09   -15 Snow Showers
15:00 -10.0 -13.7 74   9 6 40.2 100.02   -14 Snow Showers
16:00 -11.0 -14.5 75   17 4 40.2 99.99   -13 Cloudy
17:00 -12.6 -16.0 76   19 6 24.1 99.94   -17 Mostly Cloudy
18:00 -13.6 -17.3 74   19 6 24.1 99.87   -18 Mainly Clear
19:00 -15.5 -19.0 74   20 9 24.1 99.84   -21 Mostly Cloudy
20:00 -13.0 -16.5 75   9 4 24.1 99.91   -16 Mostly Cloudy
21:00 -13.0 -16.5 75     0 24.1 99.81     Cloudy
22:00 -12.6 -15.5 79     0 24.1 99.81     Cloudy
23:00 -12.6 -15.0 82     0 24.1 99.85     Snow Showers

Notes on Data Quality.

Legend

  • E = Estimated
  • M = Missing
  • NA = Not Available*
  • [empty] = Indicates an unobserved value
Date modified: